Location: Newark
(39.0900°N, 17.1600°E)
Time: 08:04:54
(UTC+00:00)

Envisat - Visible Passes

Search period start: 01 October 2020 00:00
Search period end: 11 October 2020 00:00
Orbit: 764 x 766 km, 98.1° (Epoch: 01 October)

Date Brightness Start Highest point End Pass type
(mag) Time Alt. Az. Time Alt. Az. Time Alt. Az.
02 Oct 5.2 04:12:17 10° NNE 04:16:49 32° E 04:21:18 10° SSE visible
02 Oct 5.8 17:05:19 10° SSW 17:09:21 24° W 17:13:25 10° NW visible
03 Oct 6.3 03:37:06 10° ENE 03:39:42 14° E 03:42:16 10° ESE visible
04 Oct 6.4 17:32:42 10° WSW 17:35:02 13° W 17:37:22 10° WNW visible
05 Oct 5.6 04:01:13 10° NE 04:05:22 25° E 04:09:31 10° SSE visible
05 Oct 5.3 16:53:29 10° SSW 16:57:55 30° W 17:02:22 10° NW visible
06 Oct 6.7 03:27:18 10° ENE 03:28:12 10° E 03:29:05 10° E visible
07 Oct 4.4 04:26:05 10° NNE 04:30:57 44° E 04:35:47 10° S visible
07 Oct 6.2 17:20:18 10° SW 17:23:33 17° W 17:26:49 10° NW visible
08 Oct 6.0 03:50:16 10° NE 03:53:55 20° E 03:57:33 10° SE visible
08 Oct 4.8 16:41:48 10° SSW 16:46:29 38° W 16:51:14 10° NNW visible
10 Oct 5.0 04:14:54 10° NNE 04:19:32 35° E 04:24:08 10° SSE visible
10 Oct 5.9 17:08:14 10° SW 17:12:05 22° W 17:15:58 10° NW visible
